User: anonymous   Login
Location: Slidell
(30.2789°N, 89.7378°W)
Time: 08:38:12
(UTC-05:00)
Language:

Cosmos 2360 Rocket - Orbit

View from above orbital plane
View from above orbital plane
View from above satellite
View from above satellite

Ground track
Ground track

The orbit data is extracted from the following two-line orbital elements,

1 25407U 98045B   15184.82560627 -.00000014  00000-0  16967-4 0  9998
2 25407 071.0118 102.5862 0009268 226.1409 133.8949 14.15716184875073
Epoch (UTC): 03 July 2015 19:48:52
Eccentricity: 0.0009268
inclination: 71.0118°
perigee height: 833 km
apogee height: 846 km
right ascension of ascending node: 102.5862°
argument of perigee: 226.1409°
revolutions per day: 14.15716184
mean anomaly at epoch: 133.8949°
orbit number at epoch: 87507

The dashed part of the orbit path shows where the satellite is in the earth's shadow,  

DLR